FOX-1A (AO-85)

Last updated on Wed Aug 19 2026 00:03:14 GMT+0000 (Coordinated Universal Time)

1 40967U 15058D 26229.98790469 .00001870 00000+0 17252-3 0 9993 2 40967 64.7731 86.8776 0135265 33.2312 327.7203 14.91287436122783
UTC large
Height (km)
Speed (km/s)
/
Latitude / Longitude
Inclination (degrees)
Orbital Period (minutes)
Azimuth
Elevation
Range (km)
Doppler Factor

Next 0 passes for location: London (51.5072 / 0.1276)

No passes found over London.
FOX-1A (AO-85)